Starlink 32524

operational
NORAD ID: 62159 Int'l Des: 2024-224 Owner: SPXS Country: US Constellation: starlink
LEOCIRCULAR

Starlink 32524について

説明を読み込み中...

リアルタイム位置

3D地球を読み込み中...

次回通過

高度履歴

Altitude vs Time

uPlot chart will show altitude changes over time

軌道要素

1 62159U 24224W 25258.21658428 .00047364 00000-0 17169-2 0 9995
2 62159 43.0040 72.5425 0001946 260.3666 99.6966 15.27632127 45448
Epoch: Sep 15, 2025 • Age: 20 hours

現在のステータス

高度 492.0 km
速度 7.62 km/s
衛星直下点 -36.39°S, 71.7°W
打ち上げ日 Nov 30, 2024
運用期間 0.7 years
タイプ internet

技術仕様

分類 Payload
質量 730.00 kg
乾燥質量 700.00 kg
総質量 730.00 kg
長さ 0.30 m
直径 4.10 m
スパン 29.00 m
形状 Box + pan
製造者 SPXS
バスタイプ Starlink V2M
フェーズステータス In Orbit
所有者/国 SPXS/US

大規模コンステレーション

Loading constellations...